Time,TemperatureF,DewpointF,PressureIn,WindDirection,WindDirectionDegrees,WindSpeedMPH,WindSpeedGustMPH,Humidity,HourlyPrecipIn,Conditions,Clouds,dailyrainin,SoftwareType,DateUTC
2013-01-03 00:23:00,29.7,19.0,30.23,WNW,297,2.0,3.0,64,0.00,,,0.00,weatherlink.com 1.10,2013-01-03 05:23:00,
2013-01-03 00:38:00,30.3,19.0,30.23,WNW,297,0.0,2.0,63,0.00,,,0.00,weatherlink.com 1.10,2013-01-03 05:38:00,
2013-01-03 00:53:00,30.1,20.0,30.23,WNW,297,0.0,1.0,65,0.00,,,0.00,weatherlink.com 1.10,2013-01-03 05:53:00,
2013-01-03 01:08:00,29.5,19.0,30.22,WNW,297,0.0,0.0,66,0.00,,,0.00,weatherlink.com 1.10,2013-01-03 06:08:00,
2013-01-03 01:23:00,29.1,19.0,30.22,WNW,297,0.0,1.0,66,0.00,,,0.00,weatherlink.com 1.10,2013-01-03 06:23:00,
2013-01-03 01:38:00,29.4,20.0,30.22,WNW,297,0.0,0.0,67,0.00,,,0.00,weatherlink.com 1.10,2013-01-03 06:38:00,
2013-01-03 01:53:00,30.1,20.0,30.22,WNW,297,0.0,2.0,65,0.00,,,0.00,weatherlink.com 1.10,2013-01-03 06:53:00,
2013-01-03 02:08:00,30.5,19.0,30.22,WNW,298,2.0,3.0,62,0.00,,,0.00,weatherlink.com 1.10,2013-01-03 07:08:00,
2013-01-03 02:23:00,30.8,18.0,30.23,WNW,301,1.0,4.0,60,0.00,,,0.00,weatherlink.com 1.10,2013-01-03 07:23:00,
2013-01-03 02:38:00,30.8,17.0,30.24,WNW,301,0.0,3.0,58,0.00,,,0.00,weatherlink.com 1.10,2013-01-03 07:38:00,
2013-01-03 02:53:00,30.7,17.0,30.24,WNW,290,0.0,3.0,58,0.00,,,0.00,weatherlink.com 1.10,2013-01-03 07:53:00,
2013-01-03 03:08:00,30.7,17.0,30.23,WNW,294,0.0,3.0,58,0.00,,,0.00,weatherlink.com 1.10,2013-01-03 08:08:00,
2013-01-03 03:23:00,30.6,17.0,30.23,WNW,288,1.0,4.0,57,0.00,,,0.00,weatherlink.com 1.10,2013-01-03 08:23:00,
2013-01-03 03:38:00,30.5,18.0,30.24,WNW,292,1.0,3.0,59,0.00,,,0.00,weatherlink.com 1.10,2013-01-03 08:38:00,
2013-01-03 03:53:00,30.5,18.0,30.22,West,273,0.0,3.0,59,0.00,,,0.00,weatherlink.com 1.10,2013-01-03 08:53:00,
2013-01-03 04:08:00,30.3,17.0,30.22,WNW,300,0.0,2.0,59,0.00,,,0.00,weatherlink.com 1.10,2013-01-03 09:08:00,
2013-01-03 04:23:00,30.1,18.0,30.21,NW,325,0.0,3.0,60,0.00,,,0.00,weatherlink.com 1.10,2013-01-03 09:23:00,
2013-01-03 04:38:00,30.1,18.0,30.21,NW,325,0.0,2.0,60,0.00,,,0.00,weatherlink.com 1.10,2013-01-03 09:38:00,
2013-01-03 04:53:00,29.8,18.0,30.21,NNW,327,0.0,1.0,62,0.00,,,0.00,weatherlink.com 1.10,2013-01-03 09:53:00,
2013-01-03 05:08:00,29.3,18.0,30.21,NNW,327,0.0,2.0,64,0.00,,,0.00,weatherlink.com 1.10,2013-01-03 10:08:00,
2013-01-03 05:23:00,29.0,19.0,30.21,NNW,328,0.0,2.0,66,0.00,,,0.00,weatherlink.com 1.10,2013-01-03 10:23:00,
2013-01-03 05:38:00,28.8,19.0,30.22,NNW,328,0.0,0.0,68,0.00,,,0.00,weatherlink.com 1.10,2013-01-03 10:38:00,
2013-01-03 05:53:00,28.3,19.0,30.22,NNW,328,0.0,0.0,68,0.00,,,0.00,weatherlink.com 1.10,2013-01-03 10:53:00,
2013-01-03 06:08:00,27.7,19.0,30.22,NNW,328,0.0,0.0,69,0.00,,,0.00,weatherlink.com 1.10,2013-01-03 11:08:00,
2013-01-03 06:23:00,27.3,19.0,30.23,NNW,328,0.0,0.0,71,0.00,,,0.00,weatherlink.com 1.10,2013-01-03 11:23:00,
2013-01-03 06:38:00,26.8,19.0,30.23,NNW,328,0.0,0.0,71,0.00,,,0.00,weatherlink.com 1.10,2013-01-03 11:38:00,
2013-01-03 06:53:00,26.3,19.0,30.24,NNW,328,0.0,0.0,73,0.00,,,0.00,weatherlink.com 1.10,2013-01-03 11:53:00,
2013-01-03 07:08:00,25.9,19.0,30.24,NNW,328,0.0,0.0,74,0.00,,,0.00,weatherlink.com 1.10,2013-01-03 12:08:00,
2013-01-03 07:23:00,26.0,19.0,30.24,NNW,328,0.0,0.0,74,0.00,,,0.00,weatherlink.com 1.10,2013-01-03 12:23:00,
2013-01-03 07:38:00,26.4,19.0,30.25,NNW,328,0.0,0.0,74,0.00,,,0.00,weatherlink.com 1.10,2013-01-03 12:38:00,
2013-01-03 07:53:00,27.0,20.0,30.25,NNW,328,0.0,0.0,74,0.00,,,0.00,weatherlink.com 1.10,2013-01-03 12:53:00,
2013-01-03 08:08:00,27.6,21.0,30.24,NNW,328,0.0,0.0,75,0.00,,,0.00,weatherlink.com 1.10,2013-01-03 13:08:00,
2013-01-03 08:23:00,28.2,22.0,30.24,NNW,328,0.0,0.0,76,0.00,,,0.00,weatherlink.com 1.10,2013-01-03 13:23:00,
2013-01-03 08:38:00,28.5,20.0,30.25,NNW,328,0.0,0.0,71,0.00,,,0.00,weatherlink.com 1.10,2013-01-03 13:38:00,
2013-01-03 08:53:00,29.1,20.0,30.25,NNW,328,0.0,0.0,70,0.00,,,0.00,weatherlink.com 1.10,2013-01-03 13:53:00,
2013-01-03 09:08:00,29.8,21.0,30.25,NNW,328,0.0,0.0,69,0.00,,,0.00,weatherlink.com 1.10,2013-01-03 14:08:00,
2013-01-03 09:23:00,30.3,20.0,30.25,NNW,329,0.0,2.0,66,0.00,,,0.00,weatherlink.com 1.10,2013-01-03 14:23:00,
2013-01-03 09:38:00,30.5,20.0,30.25,NNW,329,0.0,2.0,66,0.00,,,0.00,weatherlink.com 1.10,2013-01-03 14:38:00,
2013-01-03 09:53:00,31.0,20.0,30.26,NNW,328,0.0,1.0,65,0.00,,,0.00,weatherlink.com 1.10,2013-01-03 14:53:00,
2013-01-03 10:08:00,31.4,20.0,30.26,NNW,343,0.0,2.0,63,0.00,,,0.00,weatherlink.com 1.10,2013-01-03 15:08:00,
2013-01-03 10:23:00,31.6,20.0,30.26,NNW,343,0.0,3.0,63,0.00,,,0.00,weatherlink.com 1.10,2013-01-03 15:23:00,
2013-01-03 10:38:00,32.1,20.0,30.25,NNW,343,1.0,2.0,61,0.00,,,0.00,weatherlink.com 1.10,2013-01-03 15:38:00,
2013-01-03 10:53:00,32.2,20.0,30.25,NNW,342,0.0,3.0,60,0.00,,,0.00,weatherlink.com 1.10,2013-01-03 15:53:00,
2013-01-03 11:08:00,32.5,19.0,30.24,NW,318,1.0,3.0,59,0.00,,,0.00,weatherlink.com 1.10,2013-01-03 16:08:00,
2013-01-03 11:23:00,32.1,20.0,30.23,SSW,195,1.0,4.0,61,0.00,,,0.00,weatherlink.com 1.10,2013-01-03 16:23:00,
2013-01-03 11:38:00,32.2,20.0,30.23,SW,224,1.0,4.0,61,0.00,,,0.00,weatherlink.com 1.10,2013-01-03 16:38:00,
2013-01-03 11:53:00,32.7,21.0,30.23,SSW,195,0.0,3.0,62,0.00,,,0.00,weatherlink.com 1.10,2013-01-03 16:53:00,
2013-01-03 12:08:00,32.9,20.0,30.22,SSW,208,1.0,5.0,60,0.00,,,0.00,weatherlink.com 1.10,2013-01-03 17:08:00,
2013-01-03 12:23:00,33.1,20.0,30.21,SSW,211,2.0,6.0,59,0.00,,,0.00,weatherlink.com 1.10,2013-01-03 17:23:00,
2013-01-03 12:38:00,33.1,20.0,30.20,SSW,194,3.0,5.0,59,0.00,,,0.00,weatherlink.com 1.10,2013-01-03 17:38:00,
2013-01-03 12:54:00,33.0,19.0,30.19,South,185,0.0,4.0,57,0.00,,,0.00,weatherlink.com 1.10,2013-01-03 17:54:00,
2013-01-03 13:09:00,33.7,20.0,30.18,SSW,206,3.0,6.0,58,0.00,,,0.00,weatherlink.com 1.10,2013-01-03 18:09:00,
2013-01-03 13:24:00,33.7,20.0,30.17,South,178,4.0,4.0,57,0.00,,,0.00,weatherlink.com 1.10,2013-01-03 18:24:00,
2013-01-03 13:39:00,33.7,19.0,30.17,South,189,1.0,3.0,56,0.00,,,0.00,weatherlink.com 1.10,2013-01-03 18:39:00,
2013-01-03 13:54:00,33.6,19.0,30.17,SSW,199,0.0,4.0,56,0.00,,,0.00,weatherlink.com 1.10,2013-01-03 18:54:00,
2013-01-03 14:09:00,33.8,19.0,30.16,SW,215,1.0,4.0,55,0.00,,,0.00,weatherlink.com 1.10,2013-01-03 19:09:00,
2013-01-03 14:54:00,34.4,20.0,30.17,South,188,3.0,4.0,57,0.00,,,0.00,weatherlink.com 1.10,2013-01-03 19:54:00,
2013-01-03 15:09:00,34.3,20.0,30.17,WSW,246,1.0,4.0,56,0.00,,,0.00,weatherlink.com 1.10,2013-01-03 20:09:00,
2013-01-03 15:24:00,34.2,20.0,30.17,SSE,167,0.0,4.0,57,0.00,,,0.00,weatherlink.com 1.10,2013-01-03 20:24:00,
2013-01-03 15:39:00,34.5,21.0,30.17,South,175,1.0,4.0,57,0.00,,,0.00,weatherlink.com 1.10,2013-01-03 20:39:00,
2013-01-03 15:54:00,35.1,21.0,30.17,SSE,167,0.0,4.0,57,0.00,,,0.00,weatherlink.com 1.10,2013-01-03 20:54:00,
2013-01-03 16:09:00,35.1,21.0,30.17,South,175,2.0,3.0,58,0.00,,,0.00,weatherlink.com 1.10,2013-01-03 21:09:00,
2013-01-03 16:24:00,34.4,22.0,30.16,South,176,0.0,4.0,60,0.00,,,0.00,weatherlink.com 1.10,2013-01-03 21:24:00,
2013-01-03 16:39:00,34.0,22.0,30.17,South,176,0.0,1.0,62,0.00,,,0.00,weatherlink.com 1.10,2013-01-03 21:39:00,
2013-01-03 16:54:00,33.5,22.0,30.18,South,176,0.0,2.0,63,0.00,,,0.00,weatherlink.com 1.10,2013-01-03 21:54:00,
2013-01-03 17:09:00,33.2,22.0,30.18,South,176,1.0,2.0,63,0.00,,,0.00,weatherlink.com 1.10,2013-01-03 22:09:00,
2013-01-03 17:24:00,33.3,21.0,30.18,South,182,1.0,3.0,62,0.00,,,0.00,weatherlink.com 1.10,2013-01-03 22:24:00,
2013-01-03 17:39:00,33.2,22.0,30.18,South,182,2.0,2.0,63,0.00,,,0.00,weatherlink.com 1.10,2013-01-03 22:39:00,
2013-01-03 17:54:00,33.0,22.0,30.19,South,182,0.0,2.0,64,0.00,,,0.00,weatherlink.com 1.10,2013-01-03 22:54:00,
2013-01-03 18:09:00,32.5,22.0,30.19,South,182,0.0,1.0,65,0.00,,,0.00,weatherlink.com 1.10,2013-01-03 23:09:00,
2013-01-03 18:24:00,32.4,22.0,30.19,South,182,0.0,0.0,66,0.00,,,0.00,weatherlink.com 1.10,2013-01-03 23:24:00,
2013-01-03 18:39:00,32.9,22.0,30.19,SE,144,0.0,3.0,65,0.00,,,0.00,weatherlink.com 1.10,2013-01-03 23:39:00,
2013-01-03 18:54:00,32.9,23.0,30.19,SE,144,0.0,0.0,66,0.00,,,0.00,weatherlink.com 1.10,2013-01-03 23:54:00,
2013-01-03 19:09:00,32.9,23.0,30.19,SSE,160,0.0,1.0,67,0.00,,,0.00,weatherlink.com 1.10,2013-01-04 00:09:00,
2013-01-03 19:24:00,32.8,23.0,30.19,SSE,160,0.0,1.0,67,0.00,,,0.00,weatherlink.com 1.10,2013-01-04 00:24:00,
2013-01-03 19:39:00,32.0,23.0,30.19,SSE,161,0.0,2.0,70,0.00,,,0.00,weatherlink.com 1.10,2013-01-04 00:39:00,
2013-01-03 19:54:00,32.0,23.0,30.19,SSE,161,0.0,2.0,70,0.00,,,0.00,weatherlink.com 1.10,2013-01-04 00:54:00,
2013-01-03 20:09:00,32.0,23.0,30.19,SSE,161,0.0,0.0,70,0.00,,,0.00,weatherlink.com 1.10,2013-01-04 01:09:00,
2013-01-03 20:24:00,32.4,24.0,30.19,SSE,161,0.0,1.0,71,0.00,,,0.00,weatherlink.com 1.10,2013-01-04 01:24:00,
2013-01-03 20:39:00,31.8,24.0,30.18,SSE,161,2.0,3.0,72,0.00,,,0.00,weatherlink.com 1.10,2013-01-04 01:39:00,
2013-01-03 20:54:00,32.5,24.0,30.18,SSE,161,2.0,3.0,71,0.00,,,0.00,weatherlink.com 1.10,2013-01-04 01:54:00,
2013-01-03 21:09:00,33.0,24.0,30.18,SSE,161,1.0,3.0,70,0.00,,,0.00,weatherlink.com 1.10,2013-01-04 02:09:00,
2013-01-03 21:24:00,33.3,24.0,30.18,SSE,157,2.0,3.0,69,0.00,,,0.00,weatherlink.com 1.10,2013-01-04 02:24:00,
2013-01-03 21:39:00,33.1,24.0,30.18,SSE,157,0.0,1.0,70,0.00,,,0.00,weatherlink.com 1.10,2013-01-04 02:39:00,
2013-01-03 21:54:00,33.3,24.0,30.19,SSE,157,0.0,2.0,70,0.00,,,0.00,weatherlink.com 1.10,2013-01-04 02:54:00,
2013-01-03 22:09:00,32.8,25.0,30.19,SSE,158,3.0,3.0,72,0.00,,,0.00,weatherlink.com 1.10,2013-01-04 03:09:00,
2013-01-03 22:24:00,33.3,25.0,30.19,SSE,162,0.0,2.0,71,0.00,,,0.00,weatherlink.com 1.10,2013-01-04 03:24:00,
2013-01-03 22:39:00,33.7,26.0,30.19,SSW,210,0.0,4.0,72,0.00,,,0.00,weatherlink.com 1.10,2013-01-04 03:39:00,
2013-01-03 22:54:00,33.2,26.0,30.19,SSW,210,0.0,2.0,74,0.00,,,0.00,weatherlink.com 1.10,2013-01-04 03:54:00,
2013-01-03 23:09:00,33.9,26.0,30.19,South,185,2.0,4.0,74,0.00,,,0.00,weatherlink.com 1.10,2013-01-04 04:09:00,
2013-01-03 23:24:00,34.2,26.0,30.19,SSW,206,2.0,4.0,72,0.00,,,0.00,weatherlink.com 1.10,2013-01-04 04:24:00,
2013-01-03 23:39:00,34.2,26.0,30.19,South,188,2.0,5.0,73,0.00,,,0.00,weatherlink.com 1.10,2013-01-04 04:39:00,
2013-01-03 23:54:00,34.0,27.0,30.18,SSW,203,0.0,3.0,74,0.00,,,0.00,weatherlink.com 1.10,2013-01-04 04:54:00,